Flag for U.S.A. Weather past 2 weeks in Alexandria, Virginia, U.S.A.

Now
80 °F

Overcast.


Feels Like: 85 °F
Forecast: 73 / 88 °F
Wind: No wind

Location: Reagan National Airport

Current Time: Sep 4, 2015 at 12:03:44 AM

Latest Report: Sep 3, 2015 at 10:52 PM


Visibility: 10 mi

Pressure: 29.90 "Hg

Humidity: 81%

Dew point: 74 °F

Location of AlexandriaLocation

Historic Weather in Alexandria — Graph

°F

Alexandria temperature yesterday

Maximum temperature yesterday: 95 °F (at 3:52 PM)
Minimum temperature yesterday: 75 °F (at 12:52 AM)
Average temperature yesterday: 83 °F

Past Weeks' High & Low Weather Summary

 TemperatureHumidityPressure
High95 °F (Sep 1, 2:52 PM)94% (Aug 20, 4:52 AM)30.22 "Hg (Aug 20, 4:52 AM)
Low63 °F (Aug 27, 5:52 AM)30% (Aug 22, 4:52 PM)29.81 "Hg (Aug 24, 5:52 PM)
Average78 °F63%30.03 "Hg
* Reported Aug 19 10:52 PM — Sep 3 10:52 PM, Alexandria, Weather by CustomWeather, © 2015

Note: Actual official high and low records may vary slightly from our data, if they occured in-between our weather recording intervals... More about our weather records

Advertising

Alexandria weather history for previous 24 hours

 ConditionsComfort  
Time TempWeatherWind HumidityBarometerVisibility
10:52 PM
Thu, Sep 3
80 °FOvercast.No wind81%29.90 "Hg10 mi
9:52 PM80 °FMostly cloudy.5 mph76%29.90 "Hg10 mi
8:52 PM81 °FMostly cloudy.3 mph72%29.88 "Hg10 mi
7:52 PM81 °FPartly sunny.3 mph72%29.86 "Hg10 mi
6:52 PM83 °FBroken clouds.5 mph63%29.85 "Hg10 mi
5:59 PM84 °FThunderstorms. Partly sunny.15 mph55%29.86 "Hg10 mi
5:02 PM91 °FScattered clouds.5 mph44%29.84 "Hg10 mi
4:52 PM93 °FScattered clouds.6 mph42%29.84 "Hg10 mi
3:52 PM95 °FScattered clouds.7 mph40%29.85 "Hg10 mi
2:52 PM94 °FScattered clouds.10 mph43%29.87 "Hg10 mi
1:52 PM92 °FScattered clouds.6 mph47%29.89 "Hg10 mi
12:52 PM90 °FScattered clouds.No wind50%29.90 "Hg10 mi
11:52 AM89 °FPassing clouds.5 mph52%29.92 "Hg10 mi
10:52 AM86 °FPassing clouds.6 mph57%29.93 "Hg10 mi
9:52 AM83 °FSunny.9 mph61%29.94 "Hg10 mi
8:52 AM81 °FSunny.6 mph62%29.93 "Hg10 mi
7:52 AM77 °FPassing clouds.6 mph74%29.92 "Hg10 mi
6:52 AM75 °FPassing clouds.7 mph74%29.91 "Hg10 mi
5:52 AM75 °FClear.6 mph76%29.90 "Hg10 mi
4:52 AM75 °FClear.3 mph76%29.90 "Hg10 mi
3:52 AM76 °FClear.No wind74%29.90 "Hg10 mi
2:52 AM76 °FClear.5 mph74%29.91 "Hg10 mi
1:52 AM76 °FClear.5 mph77%29.93 "Hg10 mi
12:52 AM75 °FClear.7 mph82%29.95 "Hg10 mi
Weather by CustomWeather, © 2015

See weather overviewHow to use our weather pages